Weather History for KHYA - December, 2012

Change the Weather History Date:

Sunday, December 23, 2012

  Actual Average Record
Temperature  
Mean Temperature 32 °F -  
Max Temperature 39 °F 41 °F 56 °F (1984)
Min Temperature 26 °F 24 °F -3 °F (1963)
Degree Days  
Heating Degree Days 32    
Moisture  
Dew Point 21 °F    
Average Humidity 60    
Maximum Humidity 82    
Minimum Humidity 45    
Precipitation  
Precipitation 0.00 in - - ()
Sea Level Pressure  
Sea Level Pressure 29.82 in    
Wind  
Wind Speed 10 mph (West)    
Max Wind Speed 17 mph    
Max Gust Speed 30 mph    
Visibility 10 miles    
Events      
Averages and records for this station are not official NWS values.
T = Trace of Precipitation, MM = Missing Value Source: NWS Daily Summary

Daily Weather History Graph

Daily Weather History Graph

Search for Another Location

Airport or City:

Trip Planner

Search our weather history database for the weather conditions in past years. The results will help you decide how hot, cold, wet, or windy it might be!

Date:

Astronomy

Dec. 23, 2012 Rise Set
Actual Time 7:05 AM EST 4:15 PM EST
Civil Twilight 6:34 AM EST 4:46 PM EST
Nautical Twilight 5:59 AM EST 5:21 PM EST
Astronomical Twilight 5:25 AM EST 5:55 PM EST
Moon 1:05 PM EST (12/23) 2:43 AM EST (12/23)
Length of Visible Light 10h 12m
Length of Day
9h 09m
Waxing Gibbous, 81% of the Moon is Illuminated
Dec 23
Waxing Gibbous
Dec 28
Full
Jan 4
Last Quarter
Jan 11
New
Jan 18
First Quarter

Hourly Weather History & Observations

Time (EST) Temp. Windchill Dew Point Humidity Pressure Visibility Wind Dir Wind Speed Gust Speed Precip Events Conditions
12:56 AM 30.9 °F 21.7 °F 17.1 °F 57% 29.66 in 10.0 mi West 11.5 mph 18.4 mph N/A   Clear
1:56 AM 30.9 °F 21.7 °F 16.0 °F 54% 29.70 in 10.0 mi West 11.5 mph 20.7 mph N/A   Clear
2:56 AM 30.9 °F 23.5 °F 17.1 °F 57% 29.73 in 10.0 mi West 8.1 mph - N/A   Clear
3:56 AM 30.9 °F 24.3 °F 18.0 °F 59% 29.75 in 10.0 mi West 6.9 mph - N/A   Clear
4:56 AM 32.0 °F 26.4 °F 19.0 °F 59% 29.77 in 10.0 mi West 5.8 mph 16.1 mph N/A   Clear
5:56 AM 33.1 °F 23.0 °F 19.0 °F 56% 29.80 in 10.0 mi West 15.0 mph 29.9 mph N/A   Clear
6:56 AM 33.1 °F 23.9 °F 19.9 °F 59% 29.82 in 10.0 mi West 12.7 mph - N/A   Clear
7:56 AM 34.0 °F 25.5 °F 19.9 °F 56% 29.85 in 10.0 mi West 11.5 mph 21.9 mph N/A   Clear
8:56 AM 36.0 °F 27.1 °F 21.0 °F 55% 29.85 in 10.0 mi West 13.8 mph 21.9 mph N/A   Clear
9:56 AM 37.9 °F 29.6 °F 19.0 °F 47% 29.86 in 10.0 mi West 13.8 mph 28.8 mph N/A   Clear
10:56 AM 39.0 °F 29.9 °F 19.0 °F 45% 29.85 in 10.0 mi West 17.3 mph 25.3 mph N/A   Clear
11:56 AM 39.0 °F 30.6 °F 19.9 °F 46% 29.83 in 10.0 mi West 15.0 mph 25.3 mph N/A   Clear
12:56 PM 39.0 °F 29.9 °F 21.0 °F 49% 29.82 in 10.0 mi West 17.3 mph 25.3 mph N/A   Scattered Clouds
1:56 PM 39.0 °F 30.3 °F 21.9 °F 50% 29.81 in 10.0 mi WSW 16.1 mph 21.9 mph N/A   Overcast
2:56 PM 39.0 °F 33.4 °F 21.9 °F 50% 29.81 in 10.0 mi WNW 8.1 mph 16.1 mph N/A   Overcast
3:56 PM 37.9 °F 32.7 °F 23.0 °F 55% 29.82 in 10.0 mi WSW 6.9 mph - N/A   Overcast
4:56 PM 37.9 °F 33.5 °F 24.1 °F 57% 29.83 in 10.0 mi West 5.8 mph - N/A   Overcast
5:56 PM 35.1 °F 31.0 °F 25.0 °F 67% 29.85 in 10.0 mi West 4.6 mph - N/A   Clear
6:56 PM 28.9 °F - 21.0 °F 72% 29.86 in 10.0 mi Calm Calm - N/A   Clear
7:56 PM 26.1 °F - 21.0 °F 81% 29.86 in 10.0 mi Calm Calm - N/A   Clear
8:56 PM 28.0 °F - 21.9 °F 78% 29.87 in 10.0 mi Calm Calm - N/A   Clear
9:56 PM 27.0 °F - 21.9 °F 81% 29.87 in 10.0 mi Calm Calm - N/A   Clear
10:56 PM 28.9 °F 23.9 °F 24.1 °F 82% 29.88 in 10.0 mi WSW 4.6 mph - N/A   Clear
11:56 PM 30.9 °F 24.3 °F 23.0 °F 72% 29.88 in 10.0 mi SW 6.9 mph - N/A   Clear